TimeCST,TemperatureF,Dew PointF,Humidity,Sea Level PressureIn,VisibilityMPH,Wind Direction,Wind SpeedMPH,Gust SpeedMPH,PrecipitationIn,Events,Conditions,WindDirDegrees,DateUTC
12:53 AM,28.9,24.1,82,30.20,10.0,West,3.5,-,N/A,,Clear,270,2012-11-07 06:53:00
1:53 AM,32.0,25.0,75,30.18,10.0,Calm,Calm,-,N/A,,Clear,0,2012-11-07 07:53:00
2:53 AM,32.0,25.0,75,30.18,10.0,Calm,Calm,-,N/A,,Clear,0,2012-11-07 08:53:00
3:53 AM,28.0,23.0,81,30.17,10.0,Calm,Calm,-,N/A,,Clear,0,2012-11-07 09:53:00
4:53 AM,28.9,23.0,78,30.17,10.0,Calm,Calm,-,N/A,,Clear,0,2012-11-07 10:53:00
5:53 AM,25.0,21.0,85,30.18,10.0,Calm,Calm,-,N/A,,Clear,0,2012-11-07 11:53:00
6:53 AM,25.0,21.0,85,30.18,10.0,Calm,Calm,-,N/A,,Clear,0,2012-11-07 12:53:00
7:53 AM,27.0,21.9,81,30.17,10.0,East,3.5,-,N/A,,Clear,90,2012-11-07 13:53:00
8:53 AM,36.0,27.0,70,30.17,10.0,East,3.5,-,N/A,,Clear,80,2012-11-07 14:53:00
9:53 AM,50.0,27.0,41,30.14,10.0,SE,9.2,-,N/A,,Clear,140,2012-11-07 15:53:00
10:53 AM,57.9,27.0,31,30.11,10.0,SSE,13.8,-,N/A,,Clear,160,2012-11-07 16:53:00
11:53 AM,62.1,28.0,28,30.07,10.0,SSE,13.8,18.4,N/A,,Clear,150,2012-11-07 17:53:00
12:53 PM,64.9,28.9,26,30.02,10.0,South,15.0,-,N/A,,Clear,170,2012-11-07 18:53:00
1:53 PM,68.0,28.9,23,29.97,10.0,South,16.1,21.9,N/A,,Clear,180,2012-11-07 19:53:00
2:53 PM,69.1,30.0,23,29.94,10.0,South,17.3,-,N/A,,Clear,170,2012-11-07 20:53:00
3:53 PM,69.1,32.0,25,29.93,10.0,SSE,16.1,23.0,N/A,,Clear,160,2012-11-07 21:53:00
4:53 PM,66.0,33.1,29,29.93,10.0,SSE,11.5,21.9,N/A,,Clear,160,2012-11-07 22:53:00
5:53 PM,57.9,32.0,37,29.94,10.0,SE,5.8,-,N/A,,Clear,130,2012-11-07 23:53:00
6:53 PM,55.9,30.9,39,29.96,10.0,SE,9.2,-,N/A,,Clear,130,2012-11-08 00:53:00
7:53 PM,53.1,30.0,41,29.96,10.0,SSE,8.1,-,N/A,,Clear,150,2012-11-08 01:53:00
8:53 PM,51.1,30.0,44,29.95,10.0,SSE,12.7,-,N/A,,Clear,150,2012-11-08 02:53:00
9:53 PM,50.0,30.0,46,29.92,10.0,SSE,12.7,-,N/A,,Clear,160,2012-11-08 03:53:00
10:53 PM,46.9,28.0,48,29.90,10.0,SSE,5.8,-,N/A,,Clear,150,2012-11-08 04:53:00
11:53 PM,45.0,28.0,52,29.89,10.0,Variable,5.8,-,N/A,,Clear,0,2012-11-08 05:53:00